Regional Weather Roundup
Issued by NWS Albany, NY

Home | Current Version | Previous Version | Text Only | Print | Product List | Glossary On
Versions: 1 2 3 4 5 6 7 8 9 10 11 12 13 14 15 16 17 18 19 20 21 22 23 24 25 26 27 28 29 30 31 32 33 34 35 36 37 38 39 40 41 42 43 44 45 46 47 48 49 50
000
ASUS41 KALY 231710
RWRALY

NEW YORK STATE HOURLY WEATHER ROUNDUP
NATIONAL WEATHER SERVICE ALBANY NY
100 PM EDT SAT SEP 23 2017

NOTE: "FAIR" INDICATES FEW OR NO CLOUDS BELOW 12,000 FEET WITH NO
SIGNIFICANT WEATHER AND/OR NO OBSTRUCTIONS TO VISIBILITY.

NYZ032-033-038>043-046>054-057>066-NYZ062>081-082-084-231800-
EAST


CITY           SKY/WX    TMP DP  RH WIND       PRES   REMARKS
ALBANY         MOSUNNY   78  55  44 VRB5      30.08F
GLENS FALLS    SUNNY     76  54  46 CALM      30.08S
POUGHKEEPSIE   SUNNY     80  54  40 NW5       30.05F
NEWBURGH       SUNNY     79  57  47 NE8       30.08F
MONTGOMERY     SUNNY     81  59  47 NE3       30.06F
WHITE PLAINS   SUNNY     82  55  39 N15       30.05S
ISLIP          MOSUNNY   82  64  54 N13G22    30.01F
NEW YORK CITY  MOSUNNY   81  56  42 N15G23    30.03F
CENTRAL PARK   SUNNY     84  55  36 N10       30.07F
$$

NYZ005>009-017-018-044>046-055-056-231800-
CENTRAL


CITY           SKY/WX    TMP DP  RH WIND       PRES   REMARKS
FULTON         SUNNY     81  56  42 VRB3      30.13S
SYRACUSE       MOSUNNY   80  57  45 NW7       30.11F
ROME           SUNNY     74  62  66 W9        30.13S
ELMIRA         SUNNY     80  60  50 SW3       30.13F
BINGHAMTON     SUNNY     78  55  44 VRB3      30.15F
MONTICELLO     SUNNY     80  48  32 N7G16     30.13S
$$

NYZ026>034-041>043-087-231800-
NORTH


CITY           SKY/WX    TMP DP  RH WIND       PRES   REMARKS
WATERTOWN      SUNNY     79  57  46 SW9       30.11S
FORT DRUM      NOT AVBL
OGDENSBURG     FAIR      85  65  50 SW7       30.07F
MASSENA        SUNNY     82  65  56 SW8       30.08R
SARANAC LAKE   SUNNY     77  56  48 VRB6      30.13S
PLATTSBURGH    SUNNY     73  53  49 SE9       30.07F
$$

NYZ001>004-010>016-019>021-085-231800-
WEST


CITY           SKY/WX    TMP DP  RH WIND       PRES   REMARKS
NIAGARA FALLS  SUNNY     86  61  42 SW6       30.14S
BUFFALO        MOSUNNY   82  58  43 VRB5      30.15S
DUNKIRK        SUNNY     81  64  56 NW7       30.16S
JAMESTOWN      SUNNY     79  56  45 NE5       30.21F
WELLSVILLE     SUNNY     81  51  35 N8        30.22F
ROCHESTER      SUNNY     84  51  31 W7        30.14S
PENN YAN       SUNNY     82  58  43 VRB3      30.15F
$$

             KEY
       WCI = WIND CHILL INDEX
       VSB = VISIBILITY
       HX  = HEAT INDEX
$$



USA.gov is the U.S. government's official web portal to all federal, state and local government web resources and services.